Terminal Aerodrome Forecast
Issued by NWS Wilmington, OH

Current Version | Previous Version | Graphics & Text | Print | Product List | Glossary On
Versions: 1 2 3 4 5 6 7 8 9 10 11 12 13 14 15 16 17 18 19 20 21 22 23 24 25 26 27 28
000
FTUS41 KILN 281125
TAFILN
TAF
KILN 281125Z 2812/2912 09004KT 3SM BR OVC004
      TEMPO 2812/2814 1 1/2SM BR OVC007
     FM281500 14006KT 4SM BR OVC007
     FM281700 VRB04KT P6SM OVC012
     FM281900 29006KT P6SM VCTS BKN018CB OVC040
     FM282300 31007KT P6SM BKN040
     FM290400 36004KT P6SM OVC007
     FM290800 32003KT 3SM BR OVC004=

USA.gov is the U.S. government's official web portal to all federal, state and local government web resources and services.